Regional Weather Roundup
Issued by NWS

Home | Current Version | Previous Version | Text Only | Print | Product List | Glossary Off
Versions: 1 2 3 4 5 6 7 8 9 10 11 12 13 14 15 16 17 18 19 20 21 22 23 24 25 26 27 28 29 30 31 32 33 34 35 36 37 38 39 40 41 42 43 44 45 46 47 48 49 50

000
ASUS45 KTFX 031619
RWRMT
MONTANA HOURLY WEATHER ROUNDUP
NATIONAL WEATHER SERVICE GREAT FALLS MT
919 AM MST TUE MAR 3 2015

NOTE: "FAIR" INDICATES FEW OR NO CLOUDS BELOW 12000 FEET WITH NO
SIGNIFICANT WEATHER AND/OR OBSTRUCTIONS TO VISIBILITY.

* THESE STATIONS ARE NOT UNDER NWS QUALITY CONTROL. THEY DO NOT
   REPORT WEATHER SUCH AS PRECIPITATION OR FOG.

MTZ001>007-043-031700-
WEST OF THE DIVIDE
CITY           SKY/WX    TMP DP  RH WIND       PRES   REMARKS
KALISPELL      SUNNY     18   0  45 N8        30.17R WCI   8
MISSOULA       SUNNY     16   0  49 E16       30.17S WCI   1
BUTTE          PTCLDY     3  -4  72 CALM      30.01R
MULLAN PASS    LGT SNOW   7   3  83 VRB5      29.92S WCI  -2
* ANACONDA     SUNNY      7  -6  55 N9         N/A   WCI  -6
* ESSEX        N/A        3  -6  66 SE5        N/A   WCI  -7
* EUREKA APT   SUNNY     14   1  56 SE5       30.21S WCI   6
* HAMILTON APT PTCLDY    19   3  49 E2        30.12R
* LIBBY APT    SUNNY     12   5  73 CALM      30.21S
* LINCOLN      N/A        1  -8  65 NE5        N/A   WCI  -9
* LOOKOUT PASS N/A       13   8  80 S6         N/A   WCI   4
* POLSON       N/A       16   1  51 N1         N/A
* RONAN APT    PTCLDY    18   5  57 SE5        N/A   WCI  11
* SEELEY LAKE  N/A        1  -5  75 N/A        N/A
* THOMP F APT  SUNNY      9  -5  52 N11G27     N/A   WCI  -5
$$

MTZ008-052>055-031700-
SOUTHWEST MONTANA
CITY           SKY/WX    TMP DP  RH WIND       PRES   REMARKS
BOZEMAN        CLOUDY     9  -2  61 S12       30.08R WCI  -6
DILLON         CLOUDY     9   0  66 E14       29.99R WCI  -7
* W YELLOWSTON PTCLDY     7  -6  55 N6G14      N/A   WCI  -4
* THREE FORKS  SUNNY     10  -6  48 N11        N/A   WCI  -4
* BOULDER HILL N/A        0  -5  79 N11        N/A   WCI -17
* MONIDA PASS  N/A        4  -3  72 NW16       N/A   WCI -15
* RAYNOLDS PAS N/A       -2  -3  95 N17G23     N/A   WCI -23
* WHITEHALL    N/A       12  -2  53 N10G17     N/A   WCI  -1
* WISE RIVER   N/A        5  -7  57 W3         N/A
$$

MTZ009>010-012-014-046-048-049-054-031700-
EAST SLOPES AND CENTRAL MONTANA
CITY           SKY/WX    TMP DP  RH WIND       PRES   REMARKS
CUT BANK       PTCLDY     3  -2  79 NW7       30.14F WCI  -9
GREAT FALLS    SUNNY      3   1  91 SW6       30.17F WCI  -8
HELENA         PTCLDY    10   0  64 W6        30.16F
MALMSTROM AFB  SUNNY      7   3  83 SW10      30.20S WCI  -7
* CONRAD       SUNNY     -2  -9  72 W5         N/A   WCI -13
* DEARBORN     N/A        1  -3  83 N/A        N/A
* EAST GLACIER N/A       -6 -11  78 NW4        N/A
* MONARCH      N/A       -5 -10  79 SW6        N/A   WCI -18
* PENDROY      N/A        1  -3  83 W5         N/A   WCI  -9
* ROGERS PASS  N/A        0  -5  79 N/A        N/A
* SWEET GRASS  N/A        1  -7  69 NW11       N/A   WCI -15
* WHITE SULPH  N/A        6  -9  49 W4G10      N/A
$$

MTZ011-013-016-021-035-040-045-047-050-051-031700-
NORTH CENTRAL MONTANA
CITY           SKY/WX    TMP DP  RH WIND       PRES   REMARKS
HAVRE          SUNNY      9  -2  61 W15       30.24S WCI  -8
LEWISTOWN      SUNNY      1  -8  65 W9        30.11F WCI -14
* CHINOOK      SUNNY      9  -6  50 W17G24    30.23S WCI  -9
* FORT BENTON  SUNNY      9   0  66 W10       30.25S WCI  -5
* CHESTER      N/A        6  -5  60 NW10G15    N/A   WCI  -9
* DENTON       N/A        6  -4  63 W12        N/A   WCI -10
* GEYSER       N/A        5  -4  66 W12        N/A   WCI -11
* JUDITH GAP   N/A        1  -2  87 N9G14      N/A   WCI -14
* LOMA         N/A        7  -1  69 SW4        N/A
$$

MTZ017>020-022>027-061-062-031700-
NORTHEAST MONTANA
CITY           SKY/WX    TMP DP  RH WIND       PRES   REMARKS
GLASGOW        SUNNY      7  -6  55 NW22G31   30.15F WCI -14
GLENDIVE       CLOUDY     9  -2  61 W22G28    30.12R WCI -11
JORDAN         SUNNY      9  -2  61 NW21G28   30.16S WCI -11
SIDNEY         PTSUNNY    9  -8  45 NW23G31   30.15S WCI -11
WOLF POINT     PTCLDY    10  -4  53 NW23G30   30.18S WCI -10
* BEAVER HILL  N/A        4  -6  63 W27G35     N/A   WCI -19
* CIRCLE       N/A        8   1  73 W18        N/A   WCI -11
* LINDSAY DVD  N/A        4  -3  72 NW24G30    N/A   WCI -18
* NAVAJO       N/A      N/A N/A N/A NW22G32    N/A
* PLENTYWOOD A SUNNY      0  -8  68 NW22G31   30.06S WCI -23
* POPLAR APT   SUNNY      7  -6  55 W20G25    30.16F WCI -13
* SACO         N/A        7  -4  60 W20        N/A   WCI -13
* SCOBEY APT   SUNNY      3 -11  51 NW21G31    N/A   WCI -18
$$

MTZ028>042-056>058-031700-
SOUTHCENTRAL AND SOUTHEAST MONTANA
CITY           SKY/WX    TMP DP  RH WIND       PRES   REMARKS
BAKER          PTSUNNY    9  -6  50 NW23G35   30.07R WCI -11
BILLINGS       PTSUNNY    9  -2  61 NE3       30.13S
LIVINGSTON     CLOUDY     7  -2  66 W13       30.06R WCI  -9
MILES CITY     CLOUDY    10  -2  58 NW20G30   30.16S WCI  -9
* BIG TIMBER A PTCLDY    10   0  64 E3        30.08R
* FORSYTH APT  CLOUDY    10  -4  53 NW16G22   30.18S WCI  -7
* LAUREL APT   PTSUNNY    9  -8  45 W6         N/A   WCI  -1
* ROUNDUP APT  PTCLDY    12 -11  34 NW20G30    N/A   WCI  -6
* ALZADA       N/A       10   3  73 W16        N/A   WCI  -7
* HYSHAM       N/A        8  -2  63 VRB6G12    N/A   WCI  -2
* REED POINT   N/A       14   0  53 W4         N/A
* ROSCOE HILL  N/A        4  -1  79 NW1        N/A
$$

REGIONAL REPORTS...DAKOTAS
CITY           SKY/WX    TMP DP  RH WIND       PRES   REMARKS
WILLISTON      PTSUNNY    3  -6  66 NW23G30   30.12R WCI -19
DICKINSON      PTSUNNY    9  -2  61 NW25G38   29.98S WCI -12
BEACH          LGT SNOW   5   0  80 NW28G36   30.08R VSB 2 1/2 WCI -18
CROSBY         PTCLDY     0  -8  68 NW25G31   30.07S WCI -24
TIOGA          HAZE       0  -6  75 NW23G35   30.05S WCI -23
WATFORD CITY   LGT SNOW   5  -4  66 NW23G30   30.07R WCI -17
BISMARCK       PTCLDY     9  -6  50 NW23G36   30.04R WCI -11
GRAND FORKS    CLOUDY     9   1  70 NW29      29.88R WCI -13
FARGO          LGT SNOW  14   3  61 NW29G38   29.86R WCI  -7
BUFFALO SD     PTCLDY     9  -4  55 NW31G40   29.94R WCI -14
RAPID CITY     CLOUDY    12   1  61 N29G37    30.01R WCI  -9
$$

REGIONAL REPORTS...WYOMING/IDAHO/WASHINGTON
CITY           SKY/WX    TMP DP  RH WIND       PRES   REMARKS
GILLETTE       LGT SNOW   9   1  70 N21       30.00R VSB 2    WCI -11
SHERIDAN       LGT SNOW  10   3  73 N15       30.07S VSB 3    WCI  -7
CODY           CLOUDY     7   0  73 N13G18    29.99S VSB 3    WCI  -9
YELLOWSTONE LA CLOUDY     5  -6  60 N/A       29.76S
SALMON         CLOUDY    21   1  41 N10       30.03R WCI  10
MULLAN PASS    LGT SNOW   7   3  83 VRB5      29.92S WCI  -2
SAND POINT     SUNNY     27   9  46 NE8       30.20R WCI  19
SPOKANE        SUNNY     25  14  63 CALM      30.15S
$$

REGIONAL REPORTS...ALBERTA
CITY           SKY/WX    TMP DP  RH WIND       PRES   REMARKS
CALGARY        SUNNY      5  -6  60 W6        30.14S WCI  -6
LETHBRIDGE     SUNNY      7  -2  66 SW9       30.21S WCI  -6
MEDICINE HAT   N/A        7  -4  60 W10       30.24S WCI  -7
EDMONTON       SUNNY      0 -11  59 W10       30.18F WCI -16
WATERTON GATE  N/A       -8 -13  78 NE1        N/A
CARDSTON       N/A       -2  -6  83 SW2        N/A
$$

REGIONAL REPORTS...SASKATCHEWAN
CITY           SKY/WX    TMP DP  RH WIND       PRES   REMARKS
SWIFT CURRENT  SUNNY     -2  -8  75 NW23      30.07F WCI -26
MOOSE JAW      SNOW      -4 -13  65 W18       30.11S WCI -26
REGINA         SNOW      -4 -11  71 NW24      30.05S WCI -29
VAL MARIE      N/A        3  -6  66 NW24G31    N/A   WCI -20
ASSINIBOIA     N/A       -2  -9  72 NW21       N/A   WCI -25
CORONACH       N/A        0  -8  68 NW24G31    N/A   WCI -24

$$




USA.gov is the U.S. government's official web portal to all federal, state and local government web resources and services.